| time (UTC) | temp F | wind direction | speed knots | gust knots | rain 1hr in | rain 24hr in | rain mn in | humidity % | barometer mb |
| 20260504003405 | 65 | 197 | 0.0 | 0.0 | 0.00 | 0.00 | 0.00 | 42 | 1012.6 |
| 20260504002404 | 66 | 227 | 0.0 | 0.0 | 0.00 | 0.00 | 0.00 | 41 | 1012.7 |
| 20260504001905 | 66 | 202 | 0.0 | 0.9 | 0.00 | 0.00 | 0.00 | 40 | 1012.6 |
| 20260504000905 | 67 | 171 | 0.0 | 5.2 | 0.00 | 0.00 | 0.00 | 39 | 1012.6 |
| 20260504000405 | 68 | 160 | 0.0 | 6.1 | 0.00 | 0.00 | 0.00 | 39 | 1012.6 |
| 20260503235904 | 68 | 179 | 0.0 | 0.9 | 0.00 | 0.00 | 0.00 | 38 | 1012.6 |
| 20260503235405 | 69 | 155 | 0.0 | 0.9 | 0.00 | 0.00 | 0.00 | 37 | 1012.5 |
| 20260503234404 | 69 | 189 | 0.0 | 0.9 | 0.00 | 0.00 | 0.00 | 37 | 1012.4 |
| 20260503233904 | 69 | 256 | 2.6 | 8.7 | 0.00 | 0.00 | 0.00 | 36 | 1012.3 |
| 20260503232404 | 70 | 140 | 0.0 | 7.8 | 0.00 | 0.00 | 0.00 | 36 | 1012.5 |
| 20260503231905 | 70 | 162 | 3.5 | 11.3 | 0.00 | 0.00 | 0.00 | 36 | 1012.5 |
| 20260503231405 | 70 | 184 | 5.2 | 13.9 | 0.00 | 0.00 | 0.00 | 35 | 1012.4 |
| 20260503230904 | 70 | 273 | 4.3 | 10.4 | 0.00 | 0.00 | 0.00 | 35 | 1012.5 |
| 20260503230404 | 70 | 225 | 0.0 | 6.1 | 0.00 | 0.00 | 0.00 | 36 | 1012.6 |
| 20260503225904 | 70 | 182 | 1.7 | 10.4 | 0.00 | 0.00 | 0.00 | 35 | 1012.7 |
| 20260503225405 | 70 | 171 | 2.6 | 8.7 | 0.00 | 0.00 | 0.00 | 35 | 1012.8 |
| 20260503224905 | 70 | 157 | 6.1 | 13.9 | 0.00 | 0.00 | 0.00 | 35 | 1012.9 |
| 20260503224405 | 70 | 175 | 2.6 | 13.0 | 0.00 | 0.00 | 0.00 | 35 | 1013.1 |
| 20260503223905 | 71 | 183 | 5.2 | 15.6 | 0.00 | 0.00 | 0.00 | 35 | 1013.1 |
| 20260503223405 | 71 | 183 | 5.2 | 10.4 | 0.00 | 0.00 | 0.00 | 37 | 1013.1 |
| 20260503222905 | 70 | 191 | 2.6 | 12.2 | 0.00 | 0.00 | 0.00 | 36 | 1013.1 |
| 20260503222404 | 71 | 173 | 6.1 | 13.0 | 0.00 | 0.00 | 0.00 | 36 | 1013.3 |
| 20260503221405 | 71 | 188 | 5.2 | 12.2 | 0.00 | 0.00 | 0.00 | 37 | 1013.5 |
| 20260503220904 | 71 | 217 | 1.7 | 8.7 | 0.00 | 0.00 | 0.00 | 35 | 1013.5 |
| 20260503220404 | 71 | 267 | 1.7 | 11.3 | 0.00 | 0.00 | 0.00 | 36 | 1013.5 |
| 20260503214405 | 71 | 246 | 2.6 | 17.4 | 0.00 | 0.00 | 0.00 | 36 | 1014.0 |
| 20260503213904 | 71 | 263 | 4.3 | 13.0 | 0.00 | 0.00 | 0.00 | 36 | 1014.1 |
| 20260503213404 | 71 | 150 | 3.5 | 10.4 | 0.00 | 0.00 | 0.00 | 38 | 1014.2 |
| 20260503212904 | 70 | 215 | 4.3 | 13.0 | 0.00 | 0.00 | 0.00 | 36 | 1014.4 |
| 20260503212404 | 70 | 252 | 4.3 | 12.2 | 0.00 | 0.00 | 0.00 | 36 | 1014.5 |
| 20260503211904 | 70 | 155 | 7.0 | 15.6 | 0.00 | 0.00 | 0.00 | 36 | 1014.6 |
| 20260503211404 | 71 | 247 | 7.8 | 13.9 | 0.00 | 0.00 | 0.00 | 35 | 1014.7 |
| 20260503210906 | 70 | 278 | 0.9 | 7.0 | 0.00 | 0.00 | 0.00 | 37 | 1014.7 |
| 20260503210405 | 71 | 178 | 6.1 | 17.4 | 0.00 | 0.00 | 0.00 | 36 | 1014.8 |
| 20260503205904 | 70 | 185 | 5.2 | 11.3 | 0.00 | 0.00 | 0.00 | 38 | 1014.9 |
| 20260503205404 | 70 | 166 | 4.3 | 10.4 | 0.00 | 0.00 | 0.00 | 37 | 1015.2 |
| 20260503204904 | 70 | 143 | 1.7 | 10.4 | 0.00 | 0.00 | 0.00 | 38 | 1015.4 |
| 20260503204404 | 70 | 172 | 5.2 | 13.9 | 0.00 | 0.00 | 0.00 | 37 | 1015.5 |
| 20260503203404 | 70 | 159 | 5.2 | 11.3 | 0.00 | 0.00 | 0.00 | 37 | 1015.6 |
| 20260503202904 | 70 | 163 | 6.1 | 13.0 | 0.00 | 0.00 | 0.00 | 37 | 1015.8 |
| 20260503202405 | 70 | 159 | 5.2 | 13.9 | 0.00 | 0.00 | 0.00 | 38 | 1016.0 |
| 20260503201404 | 69 | 258 | 5.2 | 13.0 | 0.00 | 0.00 | 0.00 | 39 | 1016.3 |
| 20260503200904 | 69 | 251 | 2.6 | 10.4 | 0.00 | 0.00 | 0.00 | 39 | 1016.3 |
| 20260503200404 | 69 | 287 | 6.1 | 15.6 | 0.00 | 0.00 | 0.00 | 37 | 1016.4 |
| 20260503195904 | 69 | 162 | 1.7 | 10.4 | 0.00 | 0.00 | 0.00 | 40 | 1016.6 |
| 20260503195405 | 69 | 184 | 5.2 | 12.2 | 0.00 | 0.00 | 0.00 | 39 | 1016.8 |
| 20260503194905 | 68 | 170 | 5.2 | 10.4 | 0.00 | 0.00 | 0.00 | 40 | 1016.9 |
| 20260503194405 | 68 | 186 | 7.0 | 13.0 | 0.00 | 0.00 | 0.00 | 40 | 1017.1 |
| 20260503193904 | 68 | 278 | 3.5 | 10.4 | 0.00 | 0.00 | 0.00 | 41 | 1017.2 |
| 20260503193404 | 68 | 326 | 7.8 | 19.1 | 0.00 | 0.00 | 0.00 | 40 | 1017.2 |
| 20260503192905 | 68 | 218 | 2.6 | 7.8 | 0.00 | 0.00 | 0.00 | 42 | 1017.2 |
| 20260503192405 | 68 | 169 | 2.6 | 12.2 | 0.00 | 0.00 | 0.00 | 41 | 1017.4 |
| 20260503191904 | 68 | 146 | 6.1 | 18.2 | 0.00 | 0.00 | 0.00 | 41 | 1017.3 |
| 20260503191405 | 68 | 159 | 6.1 | 11.3 | 0.00 | 0.00 | 0.00 | 40 | 1017.5 |
| 20260503190904 | 68 | 146 | 4.3 | 15.6 | 0.00 | 0.00 | 0.00 | 41 | 1017.4 |
| 20260503190404 | 68 | 192 | 6.1 | 12.2 | 0.00 | 0.00 | 0.00 | 41 | 1017.6 |
| 20260503185905 | 67 | 142 | 5.2 | 12.2 | 0.00 | 0.00 | 0.00 | 41 | 1017.7 |
| 20260503185404 | 68 | 315 | 4.3 | 10.4 | 0.00 | 0.00 | 0.00 | 42 | 1017.8 |
| 20260503184904 | 68 | 238 | 1.7 | 10.4 | 0.00 | 0.00 | 0.00 | 42 | 1017.8 |
| 20260503184404 | 68 | 331 | 0.9 | 7.8 | 0.00 | 0.00 | 0.00 | 42 | 1017.9 |
| 20260503183904 | 67 | 147 | 0.9 | 7.0 | 0.00 | 0.00 | 0.00 | 43 | 1018.3 |
| 20260503183404 | 67 | 137 | 1.7 | 8.7 | 0.00 | 0.00 | 0.00 | 42 | 1018.3 |
| 20260503182904 | 67 | 160 | 4.3 | 10.4 | 0.00 | 0.00 | 0.00 | 42 | 1018.5 |
| 20260503182404 | 66 | 192 | 2.6 | 13.9 | 0.00 | 0.00 | 0.00 | 43 | 1018.6 |
| 20260503181904 | 66 | 155 | 4.3 | 11.3 | 0.00 | 0.00 | 0.00 | 44 | 1018.7 |
| 20260503181405 | 66 | 171 | 6.1 | 13.0 | 0.00 | 0.00 | 0.00 | 43 | 1018.8 |
| 20260503180904 | 66 | 265 | 4.3 | 13.0 | 0.00 | 0.00 | 0.00 | 42 | 1018.8 |
| 20260503180404 | 66 | 162 | 4.3 | 11.3 | 0.00 | 0.00 | 0.00 | 44 | 1018.8 |
| 20260503175904 | 66 | 156 | 6.1 | 13.0 | 0.00 | 0.00 | 0.00 | 45 | 1019.0 |
| 20260503174904 | 66 | 197 | 6.1 | 11.3 | 0.00 | 0.00 | 0.00 | 45 | 1019.4 |
| 20260503174405 | 66 | 165 | 4.3 | 11.3 | 0.00 | 0.00 | 0.00 | 47 | 1019.5 |
| 20260503173904 | 65 | 182 | 5.2 | 10.4 | 0.00 | 0.00 | 0.00 | 45 | 1019.6 |
| 20260503173404 | 65 | 300 | 2.6 | 10.4 | 0.00 | 0.00 | 0.00 | 47 | 1019.7 |
| 20260503172905 | 65 | 146 | 5.2 | 15.6 | 0.00 | 0.00 | 0.00 | 47 | 1019.7 |
| 20260503172404 | 65 | 324 | 2.6 | 11.3 | 0.00 | 0.00 | 0.00 | 46 | 1019.9 |
| 20260503171904 | 65 | 150 | 3.5 | 12.2 | 0.00 | 0.00 | 0.00 | 47 | 1020.0 |
| 20260503171404 | 65 | 359 | 1.7 | 8.7 | 0.00 | 0.00 | 0.00 | 46 | 1020.1 |
| 20260503150904 | 59 | 138 | 2.6 | 7.8 | 0.00 | 0.00 | 0.00 | 56 | 1021.2 |
| 20260503131404 | 47 | 165 | 0.0 | 0.0 | 0.00 | 0.00 | 0.00 | 82 | 1021.4 |
| 20260503130904 | 47 | 157 | 0.0 | 0.0 | 0.00 | 0.00 | 0.00 | 82 | 1021.3 |
| 20260503130404 | 46 | 170 | 0.0 | 0.0 | 0.00 | 0.00 | 0.00 | 82 | 1021.4 |
| 20260503110404 | 39 | 335 | 0.0 | 0.0 | 0.00 | 0.00 | 0.00 | 82 | 1020.8 |
| 20260503090405 | 37 | 335 | 0.0 | 0.0 | 0.00 | 0.00 | 0.00 | 81 | 1020.8 |
| 20260503080905 | 38 | 335 | 0.0 | 0.0 | 0.00 | 0.00 | 0.00 | 81 | 1020.7 |
| 20260503080405 | 38 | 335 | 0.0 | 0.0 | 0.00 | 0.00 | 0.00 | 81 | 1020.7 |
| 20260503072906 | 38 | 335 | 0.0 | 0.0 | 0.00 | 0.00 | 0.00 | 80 | 1020.7 |
| 20260503072405 | 38 | 335 | 0.0 | 0.0 | 0.00 | 0.00 | 0.00 | 80 | 1020.7 |
| 20260503071905 | 38 | 335 | 0.0 | 0.0 | 0.00 | 0.00 | 0.00 | 80 | 1020.7 |
| 20260503071405 | 38 | 335 | 0.0 | 0.0 | 0.00 | 0.00 | 0.00 | 80 | 1020.6 |
| 20260503070905 | 38 | 335 | 0.0 | 0.0 | 0.00 | 0.00 | 0.00 | 80 | 1020.8 |
| 20260503070405 | 39 | 335 | 0.0 | 0.0 | 0.00 | 0.00 | 0.00 | 80 | 1020.7 |
| 20260503054405 | 40 | 335 | 0.0 | 0.0 | 0.00 | 0.00 | 0.00 | 80 | 1020.9 |
| 20260503053905 | 40 | 335 | 0.0 | 0.0 | 0.00 | 0.00 | 0.00 | 79 | 1020.8 |
| 20260503053405 | 40 | 335 | 0.0 | 0.0 | 0.00 | 0.00 | 0.00 | 79 | 1020.8 |
| 20260503052905 | 40 | 335 | 0.0 | 0.0 | 0.00 | 0.00 | 0.00 | 79 | 1020.9 |
| 20260503052404 | 40 | 335 | 0.0 | 0.0 | 0.00 | 0.00 | 0.00 | 79 | 1020.9 |
| 20260503051905 | 41 | 335 | 0.0 | 0.0 | 0.00 | 0.00 | 0.00 | 79 | 1020.9 |
| 20260503050905 | 41 | 334 | 0.0 | 0.0 | 0.00 | 0.00 | 0.00 | 79 | 1020.9 |
| 20260503050405 | 41 | 335 | 0.0 | 0.0 | 0.00 | 0.00 | 0.00 | 79 | 1020.8 |
| 20260503045904 | 41 | 335 | 0.0 | 0.0 | 0.00 | 0.00 | 0.00 | 79 | 1020.8 |
| 20260503045405 | 41 | 335 | 0.0 | 0.0 | 0.00 | 0.00 | 0.00 | 78 | 1020.8 |
| 20260503044905 | 41 | 335 | 0.0 | 0.0 | 0.00 | 0.00 | 0.00 | 78 | 1020.7 |
| 20260503044405 | 41 | 335 | 0.0 | 0.0 | 0.00 | 0.00 | 0.00 | 78 | 1020.6 |
| 20260503043905 | 41 | 334 | 0.0 | 0.0 | 0.00 | 0.00 | 0.00 | 78 | 1020.7 |
| 20260503043405 | 41 | 335 | 0.0 | 0.0 | 0.00 | 0.00 | 0.00 | 78 | 1020.7 |
| 20260503042905 | 41 | 335 | 0.0 | 0.0 | 0.00 | 0.00 | 0.00 | 78 | 1020.7 |
| 20260503041904 | 42 | 335 | 0.0 | 0.0 | 0.00 | 0.00 | 0.00 | 78 | 1020.6 |
| 20260503041406 | 42 | 335 | 0.0 | 0.0 | 0.00 | 0.00 | 0.00 | 78 | 1020.5 |
| 20260503040405 | 42 | 334 | 0.0 | 0.0 | 0.00 | 0.00 | 0.00 | 77 | 1020.7 |
| 20260503035905 | 42 | 335 | 0.0 | 0.0 | 0.00 | 0.00 | 0.00 | 77 | 1020.6 |
| 20260503035405 | 42 | 334 | 0.0 | 0.0 | 0.00 | 0.00 | 0.00 | 77 | 1020.7 |
| 20260503034405 | 42 | 335 | 0.0 | 0.0 | 0.00 | 0.00 | 0.00 | 76 | 1020.7 |
| 20260503033904 | 42 | 335 | 0.0 | 0.0 | 0.00 | 0.00 | 0.00 | 75 | 1020.7 |
| 20260503033405 | 42 | 335 | 0.0 | 0.0 | 0.00 | 0.00 | 0.00 | 75 | 1020.7 |
| 20260503032905 | 43 | 335 | 0.0 | 0.0 | 0.00 | 0.00 | 0.00 | 75 | 1020.7 |
| 20260503032404 | 43 | 334 | 0.0 | 0.0 | 0.00 | 0.00 | 0.00 | 74 | 1020.6 |
| 20260503031905 | 43 | 335 | 0.0 | 0.0 | 0.00 | 0.00 | 0.00 | 74 | 1020.6 |
| 20260503031405 | 43 | 335 | 0.0 | 0.0 | 0.00 | 0.00 | 0.00 | 73 | 1020.5 |
| 20260503030405 | 43 | 335 | 0.0 | 0.0 | 0.00 | 0.00 | 0.00 | 72 | 1020.5 |
| 20260503025905 | 44 | 335 | 0.0 | 0.0 | 0.00 | 0.00 | 0.00 | 72 | 1020.5 |
| 20260503025405 | 44 | 335 | 0.0 | 0.0 | 0.00 | 0.00 | 0.00 | 72 | 1020.4 |
| 20260503024905 | 44 | 335 | 0.0 | 0.0 | 0.00 | 0.00 | 0.00 | 72 | 1020.4 |
| 20260503024405 | 44 | 335 | 0.0 | 0.0 | 0.00 | 0.00 | 0.00 | 71 | 1020.3 |
| 20260503023905 | 45 | 335 | 0.0 | 0.0 | 0.00 | 0.00 | 0.00 | 71 | 1020.3 |
| 20260503023404 | 45 | 335 | 0.0 | 0.0 | 0.00 | 0.00 | 0.00 | 70 | 1020.3 |
| 20260503022905 | 45 | 335 | 0.0 | 0.0 | 0.00 | 0.00 | 0.00 | 70 | 1020.2 |
| 20260503021905 | 46 | 335 | 0.0 | 0.0 | 0.00 | 0.00 | 0.00 | 69 | 1020.1 |
| 20260503021405 | 46 | 335 | 0.0 | 0.0 | 0.00 | 0.00 | 0.00 | 69 | 1020.0 |
| 20260503020405 | 46 | 335 | 0.0 | 0.0 | 0.00 | 0.00 | 0.00 | 68 | 1020.0 |
| 20260503014904 | 47 | 335 | 0.0 | 0.0 | 0.00 | 0.00 | 0.00 | 66 | 1019.8 |
| 20260503014405 | 47 | 335 | 0.0 | 0.0 | 0.00 | 0.00 | 0.00 | 65 | 1019.8 |
| 20260503013904 | 48 | 335 | 0.0 | 0.0 | 0.00 | 0.00 | 0.00 | 64 | 1019.8 |
| 20260503013405 | 48 | 335 | 0.0 | 0.0 | 0.00 | 0.00 | 0.00 | 64 | 1019.8 |
| 20260503012905 | 48 | 335 | 0.0 | 0.0 | 0.00 | 0.00 | 0.00 | 63 | 1019.7 |
| 20260503011905 | 49 | 335 | 0.0 | 0.0 | 0.00 | 0.00 | 0.00 | 62 | 1019.5 |
| 20260503011404 | 49 | 334 | 0.0 | 0.0 | 0.00 | 0.00 | 0.00 | 61 | 1019.5 |
| 20260503010905 | 50 | 335 | 0.0 | 0.0 | 0.00 | 0.00 | 0.00 | 61 | 1019.4 |
| 20260503010405 | 50 | 335 | 0.0 | 0.0 | 0.00 | 0.00 | 0.00 | 59 | 1019.4 |
| 20260503005904 | 51 | 335 | 0.0 | 0.0 | 0.00 | 0.00 | 0.00 | 59 | 1019.4 |
| 20260503005405 | 52 | 335 | 0.0 | 0.0 | 0.00 | 0.00 | 0.00 | 58 | 1019.4 |
| 20260503004904 | 52 | 335 | 0.0 | 0.0 | 0.00 | 0.00 | 0.00 | 57 | 1019.4 |
| 20260503004404 | 52 | 335 | 0.0 | 0.0 | 0.00 | 0.00 | 0.00 | 56 | 1019.5 |